Seattle Boeing, WA

9:01 AM PDT on May 23, 2017 (GMT -0700)
Boeing Field-King County International

Weather History for KBFI - June, 2013

Change the Weather History Date:

Monday, June 24, 2013

  Actual Average Record
Temperature  
Mean Temperature 64 °F -  
Max Temperature 71 °F 71 °F 92 °F (1992)
Min Temperature 59 °F 52 °F 45 °F (1952)
Growing Degree Days 14 (Base 50)    
Moisture  
Dew Point 54 °F    
Average Humidity 72    
Maximum Humidity 90    
Minimum Humidity 51    
Precipitation  
Precipitation 0.01 in - - ()
Sea Level Pressure  
Sea Level Pressure 29.65 in    
Wind  
Wind Speed 7 mph (South)    
Max Wind Speed 14 mph    
Max Gust Speed 20 mph    
Visibility 9 miles    
Events Rain    
Averages and records for this station are not official NWS values.
T = Trace of Precipitation, MM = Missing Value Source: NWS Daily Summary

Daily Weather History Graph

Daily Weather History Graph

Search for Another Location

Airport or City:

Trip Planner

Search our weather history database for the weather conditions in past years. The results will help you decide how hot, cold, wet, or windy it might be!

Date:

Astronomy

Jun. 24, 2013 Rise Set
Actual Time 5:12 AM PDT 9:10 PM PDT
Civil Twilight 4:32 AM PDT 9:51 PM PDT
Nautical Twilight 3:35 AM PDT 10:47 PM PDT
Astronomical Twilight 2:06 AM PDT 12:16 AM PDT
Moon 10:06 PM PDT (6/24) 6:55 AM PDT (6/24)
Length of Visible Light 17h 19m
Length of Day
15h 58m
Full, 97% of the Moon is Illuminated
Jun 24
Full
Jun 29
Last Quarter
Jul 8
New
Jul 15
First Quarter
Jul 22
Full

Hourly Weather History & Observations

Time (PDT) Temp. Dew Point Humidity Pressure Visibility Wind Dir Wind Speed Gust Speed Precip Events Conditions
12:53 AM 62.1 °F 57.9 °F 86% 29.62 in 10.0 mi SE 8.1 mph - N/A   Overcast
1:53 AM 62.1 °F 57.9 °F 86% 29.61 in 10.0 mi SE 5.8 mph - N/A   Overcast
2:53 AM 62.1 °F 59.0 °F 90% 29.60 in 10.0 mi SE 5.8 mph - N/A   Overcast
3:53 AM 62.1 °F 59.0 °F 90% 29.59 in 10.0 mi SE 3.5 mph - N/A   Overcast
4:00 AM 62.6 °F 59.0 °F 88% 29.59 in 10.0 mi SE 4.6 mph - N/A   Overcast
4:40 AM 62.6 °F 57.2 °F 82% 29.59 in 10.0 mi SE 5.8 mph - N/A   Mostly Cloudy
4:53 AM 62.1 °F 57.9 °F 86% 29.59 in 10.0 mi SE 5.8 mph - N/A   Mostly Cloudy
5:49 AM 62.6 °F 57.2 °F 82% 29.60 in 4.0 mi SSE 5.8 mph - N/A Rain Light Rain
5:53 AM 62.1 °F 57.9 °F 86% 29.60 in 3.0 mi South 6.9 mph - N/A Rain Light Rain
5:57 AM 62.6 °F 57.2 °F 82% 29.61 in 2.5 mi South 5.8 mph - N/A Rain Light Rain
6:21 AM 60.8 °F 55.4 °F 82% 29.62 in 9.0 mi SSW 13.8 mph 19.6 mph N/A Rain Light Rain
6:53 AM 60.1 °F 54.0 °F 80% 29.63 in 10.0 mi SSW 10.4 mph 17.3 mph N/A Rain Light Rain
7:53 AM 59.0 °F 52.0 °F 78% 29.65 in 10.0 mi South 8.1 mph 16.1 mph 0.01 in Rain Light Rain
8:53 AM 60.1 °F 53.1 °F 78% 29.67 in 10.0 mi South 8.1 mph - 0.00 in   Overcast
9:53 AM 62.1 °F 55.0 °F 78% 29.68 in 10.0 mi South 8.1 mph - N/A   Overcast
10:53 AM 63.0 °F 51.1 °F 65% 29.68 in 10.0 mi South 9.2 mph - N/A   Overcast
11:53 AM 66.0 °F 52.0 °F 60% 29.68 in 10.0 mi SSW 8.1 mph 17.3 mph N/A   Overcast
12:53 PM 66.9 °F 51.1 °F 57% 29.68 in 10.0 mi South 8.1 mph - N/A   Overcast
1:53 PM 66.9 °F 51.1 °F 57% 29.68 in 10.0 mi South 8.1 mph - N/A   Overcast
2:53 PM 66.9 °F 51.1 °F 57% 29.68 in 10.0 mi South 9.2 mph - N/A   Overcast
3:53 PM 70.0 °F 51.1 °F 51% 29.68 in 10.0 mi Variable 4.6 mph - N/A   Mostly Cloudy
4:53 PM 70.0 °F 51.1 °F 51% 29.67 in 10.0 mi SSW 6.9 mph - N/A   Mostly Cloudy
5:53 PM 69.1 °F 50.0 °F 51% 29.67 in 10.0 mi WSW 5.8 mph - N/A   Mostly Cloudy
6:53 PM 68.0 °F 51.1 °F 55% 29.69 in 10.0 mi SSW 9.2 mph - N/A   Mostly Cloudy
7:53 PM 64.9 °F 51.1 °F 61% 29.70 in 10.0 mi Variable 6.9 mph - N/A   Mostly Cloudy
8:53 PM 64.0 °F 52.0 °F 65% 29.70 in 10.0 mi Variable 4.6 mph - 0.00 in Rain Light Rain
9:53 PM 63.0 °F 53.1 °F 70% 29.71 in 10.0 mi SSE 6.9 mph - 0.00 in   Overcast
10:53 PM 62.1 °F 52.0 °F 70% 29.71 in 10.0 mi SSE 6.9 mph - N/A   Overcast
11:53 PM 62.1 °F 54.0 °F 75% 29.70 in 10.0 mi SE 5.8 mph - N/A   Overcast